This demonstration page uses our WeatherBlox Daily Observations layout. Learn more.

40.92501, -98.34201

Hourly Observations for February 28, 2020

Temp ( °F °C ) Dew Point ( °F °C ) Humidity (%) Winds ( mph kmh ) Pressure ( in mb ) Visibility ( mi km ) Precip ( " mm )
12:53 am 00:53 Partly Cloudy 31 -0.6 25 -3.9 79 79 WSW 9 15 30.19 1022 10 16.0934 0 0
1:53 am 01:53 Mostly Clear 31 -0.6 25 -3.9 79 79 W 12 19 30.18 1022 10 16.0934 0 0
2:53 am 02:53 Mostly Clear 33 0.6 26 -3.3 75 75 W 14 22 30.16 1022 10 16.0934 0 0
3:53 am 03:53 Clear 31 -0.6 25 -3.9 79 79 W 12 19 30.16 1021 10 16.0934 0 0
4:53 am 04:53 Clear 29 -1.7 23 -5 78 78 W 8 13 30.16 1021 10 16.0934 0 0
5:53 am 05:53 Clear 29 -1.7 23 -5 78 78 W 10 17 30.18 1022 10 16.0934 0 0
6:53 am 06:53 Clear 29 -1.7 22 -5.6 75 75 WNW 12 19 30.2 1023 10 16.0934 0 0
7:53 am 07:53 Mostly Cloudy 31 -0.6 23 -5 72 72 W 7 11 30.2 1023 10 16.0934 0 0
8:53 am 08:53 Cloudy 33 0.6 25 -3.9 72 72 W 8 13 30.22 1023 10 16.0934 0 0
9:53 am 09:53 Sunny 40 4.4 27 -2.8 60 60 W 12 19 30.21 1023 10 16.0934 0 0
10:53 am 10:53 Sunny 45 7.2 27 -2.8 49 49 WNW 12 19 30.21 1023 10 16.0934 0 0
11:53 am 11:53 Sunny 49 9.4 26 -3.3 41 41 WNW 15 24 30.2 1023 10 16.0934 0 0
12:53 pm 12:53 Sunny 53 11.7 26 -3.3 35 35 NW 21 33 30.19 1022 10 16.0934 0 0
1:53 pm 13:53 Sunny 56 13.3 23 -5 28 28 NNW 22 35 30.17 1022 10 16.0934 0 0
2:53 pm 14:53 Sunny 57 13.9 22 -5.6 26 26 NNW 21 33 30.17 1022 10 16.0934 0 0
3:53 pm 15:53 Sunny 55 12.8 18 -7.8 23 23 NNW 20 31 30.19 1022 10 16.0934 0 0
4:53 pm 16:53 Sunny 54 12.2 21 -6.1 28 28 NNW 13 20 30.2 1023 10 16.0934 0 0
5:53 pm 17:53 Sunny 49 9.4 21 -6.1 33 33 N 9 15 30.23 1024 10 16.0934 0 0
6:53 pm 18:53 Clear 39 3.9 22 -5.6 50 50 Calm 30.26 1025 10 16.0934 0 0
7:53 pm 19:53 Clear 38 3.3 22 -5.6 52 52 Calm 30.26 1025 10 16.0934 0 0
8:53 pm 20:53 Clear 34 1.1 22 -5.6 61 61 Calm 30.26 1025 10 16.0934 0 0
9:53 pm 21:53 Clear 32 0 21 -6.1 64 64 SSW 5 7 30.26 1025 10 16.0934 0 0
10:53 pm 22:53 Clear 34 1.1 22 -5.6 61 61 S 7 11 30.24 1024 10 16.0934 0 0
11:53 pm 23:53 Clear 30 -1.1 22 -5.6 72 72 S 7 11 30.22 1024 10 16.0934 0 0

Powered by AerisWeather